Weather History for Jamestown, NY

Change the Weather History Date:

Wednesday, September 28, 2011

  Actual Average Record
Temperature  
Mean Temperature 58 °F -  
Max Temperature 64 °F 65 °F 81 °F (1988)
Min Temperature 53 °F 40 °F 30 °F (1984)
Degree Days  
Heating Degree Days 6    
Growing Degree Days 8 (Base 50)    
Moisture  
Dew Point 55 °F    
Average Humidity 84    
Maximum Humidity 100    
Minimum Humidity 64    
Precipitation  
Precipitation 0.00 in - - ()
Sea Level Pressure  
Sea Level Pressure 29.88 in    
Wind  
Wind Speed 4 mph (SSE)    
Max Wind Speed 8 mph    
Max Gust Speed -    
Visibility 7 miles    
Events      
Averages and records for this station are not official NWS values.
T = Trace of Precipitation, MM = Missing Value Source: NWS Daily Summary

Daily Weather History Graph

Daily Weather History Graph

Search for Another Location

Airport:

Trip Planner

Search our weather history database for the weather conditions in past years. The results will help you decide how hot, cold, wet, or windy it might be!

Date:

Astronomy

Sep. 28, 2011 Rise Set
Actual Time 7:10 AM EDT 7:04 PM EDT
Civil Twilight 6:42 AM EDT 7:32 PM EDT
Nautical Twilight 6:10 AM EDT 8:04 PM EDT
Astronomical Twilight 5:36 AM EDT 8:37 PM EDT
Moon 8:40 AM EDT 7:28 PM EDT
Length of Visible Light 12h 49m
Length of Day
11h 53m
New Moon, 2% of the Moon is Illuminated
Sep 28
New Moon
Oct 3
First Quarter
Oct 11
Full
Oct 19
Last Quarter
Oct 26
New

Hourly Weather History & Observations

Time (EDT) Temp. Dew Point Humidity Pressure Visibility Wind Dir Wind Speed Gust Speed Precip Events Conditions
12:15 AM 60.8 °F 57.2 °F 88% 29.91 in 3.0 mi NNE 3.5 mph - N/A   Overcast
12:35 AM 60.8 °F 57.2 °F 88% 29.91 in 1.2 mi Calm Calm - N/A   Overcast
12:55 AM 60.8 °F 59.0 °F 94% 29.90 in 1.0 mi NNW 3.5 mph - N/A   Overcast
1:15 AM 60.8 °F 57.2 °F 88% 29.89 in 3.0 mi NW 4.6 mph - N/A   Overcast
1:35 AM 60.8 °F 57.2 °F 88% 29.88 in 5.0 mi North 3.5 mph - N/A   Overcast
1:55 AM 59.0 °F 57.2 °F 94% 29.90 in 4.0 mi SW 3.5 mph - N/A   Overcast
2:15 AM 59.0 °F 57.2 °F 94% 29.91 in 4.0 mi South 5.8 mph - N/A   Overcast
2:35 AM 57.2 °F 53.6 °F 88% 29.89 in 5.0 mi ESE 4.6 mph - N/A   Overcast
2:55 AM 59.0 °F 57.2 °F 94% 29.89 in 1.5 mi Calm Calm - N/A   Overcast
3:15 AM 57.2 °F 55.4 °F 94% 29.89 in 4.0 mi Calm Calm - N/A   Overcast
3:35 AM 59.0 °F 57.2 °F 94% 29.89 in 5.0 mi SE 3.5 mph - N/A   Overcast
3:55 AM 59.0 °F 57.2 °F 94% 29.87 in 5.0 mi East 4.6 mph - N/A   Overcast
4:15 AM 57.2 °F 55.4 °F 94% 29.87 in 7.0 mi ESE 4.6 mph - N/A   Scattered Clouds
4:35 AM 57.2 °F 55.4 °F 94% 29.88 in 2.0 mi South 3.5 mph - N/A   Clear
4:55 AM 57.2 °F 55.4 °F 94% 29.88 in 1.5 mi Calm Calm - N/A   Mostly Cloudy
5:15 AM 55.4 °F 55.4 °F 100% 29.89 in 0.5 mi South 4.6 mph - N/A   Overcast
5:35 AM 55.4 °F 53.6 °F 94% 29.89 in 0.2 mi South 3.5 mph - N/A   Overcast
5:55 AM 55.4 °F 53.6 °F 94% 29.89 in 2.0 mi South 3.5 mph - N/A   Mostly Cloudy
6:15 AM 55.4 °F 53.6 °F 94% 29.89 in 1.0 mi SSW 3.5 mph - N/A   Clear
6:35 AM 53.6 °F 53.6 °F 100% 29.90 in 1.2 mi South 4.6 mph - N/A   Scattered Clouds
6:55 AM 53.6 °F 51.8 °F 94% 29.90 in 3.0 mi South 3.5 mph - N/A   Clear
7:15 AM 53.6 °F 51.8 °F 94% 29.91 in 1.0 mi South 3.5 mph - N/A   Clear
7:35 AM 53.6 °F 51.8 °F 94% 29.91 in 0.2 mi South 4.6 mph - N/A   Mostly Cloudy
7:55 AM 53.6 °F 51.8 °F 94% 29.91 in 0.2 mi Calm Calm - N/A   Unknown
8:35 AM 55.4 °F 55.4 °F 100% 29.92 in 5.0 mi South 8.1 mph - N/A   Partly Cloudy
9:15 AM 55.4 °F 53.6 °F 94% 29.93 in 8.0 mi SSE 5.8 mph - N/A   Partly Cloudy
9:35 AM 57.2 °F 53.6 °F 88% 29.92 in 8.0 mi South 4.6 mph - N/A   Mostly Cloudy
9:55 AM 59.0 °F 55.4 °F 88% 29.92 in 10.0 mi SSE 5.8 mph - N/A   Mostly Cloudy
10:15 AM 60.8 °F 57.2 °F 88% 29.91 in 10.0 mi South 4.6 mph - N/A   Partly Cloudy
10:35 AM 62.6 °F 55.4 °F 77% 29.92 in 10.0 mi SSE 4.6 mph - N/A   Clear
10:55 AM 62.6 °F 55.4 °F 77% 29.91 in 10.0 mi SE 5.8 mph - N/A   Clear
11:15 AM 62.6 °F 55.4 °F 77% 29.91 in 10.0 mi SE 4.6 mph - N/A   Clear
11:55 AM 64.4 °F 53.6 °F 68% 29.90 in 10.0 mi SSE 6.9 mph - N/A   Mostly Cloudy
12:15 PM 64.4 °F 51.8 °F 64% 29.89 in 10.0 mi South 8.1 mph - N/A   Overcast
12:35 PM 64.4 °F 51.8 °F 64% 29.89 in 10.0 mi SSE 6.9 mph - N/A   Overcast
12:55 PM 64.4 °F 53.6 °F 68% 29.89 in 10.0 mi SSE 6.9 mph - N/A   Overcast
1:15 PM 64.4 °F 51.8 °F 64% 29.88 in 10.0 mi SE 6.9 mph - N/A   Overcast
1:35 PM 62.6 °F 53.6 °F 72% 29.87 in 10.0 mi ESE 6.9 mph - N/A   Overcast
1:55 PM 62.6 °F 53.6 °F 72% 29.87 in 10.0 mi SE 6.9 mph - N/A   Overcast
2:15 PM 62.6 °F 53.6 °F 72% 29.86 in 10.0 mi SE 6.9 mph - N/A   Overcast
2:35 PM 62.6 °F 53.6 °F 72% 29.85 in 10.0 mi South 5.8 mph - N/A   Overcast
2:55 PM 62.6 °F 53.6 °F 72% 29.85 in 10.0 mi SSE 5.8 mph - N/A   Overcast
3:15 PM 62.6 °F 51.8 °F 68% 29.85 in 10.0 mi SE 4.6 mph - N/A   Overcast
3:35 PM 62.6 °F 53.6 °F 72% 29.85 in 10.0 mi SSE 4.6 mph - N/A   Overcast
3:55 PM 62.6 °F 53.6 °F 72% 29.84 in 10.0 mi SE 5.8 mph - N/A   Overcast
4:15 PM 64.4 °F 53.6 °F 68% 29.84 in 10.0 mi South 5.8 mph - N/A   Overcast
4:35 PM 64.4 °F 53.6 °F 68% 29.84 in 10.0 mi South 5.8 mph - N/A   Overcast
4:55 PM 64.4 °F 55.4 °F 73% 29.84 in 10.0 mi SSE 4.6 mph - N/A   Overcast
5:15 PM 62.6 °F 55.4 °F 77% 29.83 in 10.0 mi SE 5.8 mph - N/A   Mostly Cloudy
5:35 PM 62.6 °F 57.2 °F 82% 29.83 in 10.0 mi ESE 4.6 mph - N/A   Mostly Cloudy
6:15 PM 62.6 °F 57.2 °F 82% 29.83 in 10.0 mi South 4.6 mph - N/A   Partly Cloudy
6:35 PM 60.8 °F 57.2 °F 88% 29.83 in 10.0 mi SE 3.5 mph - N/A   Mostly Cloudy
6:55 PM 60.8 °F 57.2 °F 88% 29.83 in 10.0 mi SE 4.6 mph - N/A   Mostly Cloudy
7:15 PM 60.8 °F 57.2 °F 88% 29.83 in 10.0 mi ESE 5.8 mph - N/A   Mostly Cloudy
7:35 PM 60.8 °F 57.2 °F 88% 29.83 in 10.0 mi Calm Calm - N/A   Scattered Clouds
7:55 PM 60.8 °F 57.2 °F 88% 29.83 in 10.0 mi SSE 3.5 mph - N/A   Mostly Cloudy
8:15 PM 60.8 °F 57.2 °F 88% 29.84 in 10.0 mi Calm Calm - N/A   Partly Cloudy
8:35 PM 57.2 °F 55.4 °F 94% 29.84 in 5.0 mi SSE 3.5 mph - N/A   Scattered Clouds
8:55 PM 59.0 °F 57.2 °F 94% 29.84 in 10.0 mi Calm Calm - N/A   Scattered Clouds
9:15 PM 57.2 °F 55.4 °F 94% 29.84 in 6.0 mi SSW 3.5 mph - N/A   Mostly Cloudy
9:35 PM 59.0 °F 57.2 °F 94% 29.84 in 10.0 mi Calm Calm - N/A   Overcast
9:55 PM 59.0 °F 57.2 °F 94% 29.84 in 9.0 mi Calm Calm - N/A   Scattered Clouds
10:15 PM 57.2 °F 55.4 °F 94% 29.84 in 0.2 mi Calm Calm - N/A   Unknown
10:35 PM 57.2 °F 55.4 °F 94% 29.84 in 9.0 mi WSW 5.8 mph - N/A   Scattered Clouds
10:55 PM 57.2 °F 55.4 °F 94% 29.84 in 5.0 mi West 6.9 mph - N/A   Partly Cloudy
11:15 PM 57.2 °F 53.6 °F 88% 29.84 in 10.0 mi West 4.6 mph - N/A   Clear
11:35 PM 55.4 °F 53.6 °F 94% 29.84 in 9.0 mi NNW 3.5 mph - N/A   Scattered Clouds
11:55 PM 55.4 °F 53.6 °F 94% 29.84 in 8.0 mi NW 5.8 mph - N/A   Scattered Clouds